C6031 KFMH-KFMH

Flight info

Callsign C6031
Flight time 0h 9m
Altitude 1500
Route VFR OPR
Aircraft H60/M-DOV/C

Departure

Time 2026-04-25 04:24
Airport Cape Cod Coast Guard Air Station (KFMH)

Arrival

Time 2026-04-25 04:34
Airport Cape Cod Coast Guard Air Station (KFMH)
Time Latitude Longitude Altitude Speed Heading
2026-04-25 03:26 41.66529 -70.52078 141 ft 0 kts 354°
2026-04-25 03:38 41.66541 -70.52085 141 ft 6 kts 298°
2026-04-25 03:38 41.66525 -70.52113 142 ft 4 kts 186°
2026-04-25 03:38 41.66497 -70.52112 142 ft 5 kts 175°
2026-04-25 03:38 41.66451 -70.52116 142 ft 9 kts 226°
2026-04-25 03:39 41.66439 -70.52191 143 ft 6 kts 264°
2026-04-25 03:39 41.66435 -70.52241 144 ft 6 kts 265°
2026-04-25 03:39 41.66431 -70.52303 145 ft 8 kts 265°
2026-04-25 03:39 41.66425 -70.52384 146 ft 10 kts 263°
2026-04-25 03:40 41.66418 -70.52483 146 ft 9 kts 264°
2026-04-25 03:40 41.66412 -70.52554 147 ft 7 kts 265°
2026-04-25 03:40 41.66408 -70.52615 148 ft 7 kts 264°
2026-04-25 03:40 41.66405 -70.52654 148 ft 0 kts 265°
2026-04-25 03:41 41.66405 -70.52655 148 ft 1 kts 265°
2026-04-25 03:41 41.66402 -70.52711 151 ft 12 kts 266°
2026-04-25 03:42 41.66259 -70.52739 240 ft 47 kts 152°
2026-04-25 03:42 41.65849 -70.52305 460 ft 99 kts 151°
2026-04-25 03:42 41.65162 -70.51819 570 ft 122 kts 155°
2026-04-25 03:42 41.64283 -70.51578 644 ft 134 kts 176°
2026-04-25 03:43 41.63294 -70.51629 605 ft 153 kts 186°
2026-04-25 03:43 41.62193 -70.51875 635 ft 166 kts 192°
2026-04-25 03:43 41.61066 -70.52220 685 ft 166 kts 194°
2026-04-25 03:43 41.59946 -70.52588 703 ft 165 kts 193°
2026-04-25 03:44 41.58916 -70.52887 613 ft 144 kts 193°
2026-04-25 03:44 41.57960 -70.53164 631 ft 135 kts 193°
2026-04-25 03:44 41.57039 -70.53487 610 ft 133 kts 200°
2026-04-25 03:44 41.56277 -70.54053 626 ft 127 kts 217°
2026-04-25 03:45 41.55551 -70.54759 610 ft 130 kts 217°
2026-04-25 03:45 41.54817 -70.55511 633 ft 135 kts 221°
2026-04-25 03:45 41.54143 -70.56389 633 ft 137 kts 224°
2026-04-25 03:45 41.53518 -70.57232 635 ft 114 kts 231°
2026-04-25 03:46 41.53032 -70.58071 623 ft 119 kts 232°
2026-04-25 03:46 41.52503 -70.58997 628 ft 130 kts 233°
2026-04-25 03:46 41.51953 -70.59938 617 ft 128 kts 232°
2026-04-25 03:46 41.51410 -70.60864 641 ft 126 kts 232°
2026-04-25 03:47 41.50881 -70.61777 610 ft 122 kts 232°
2026-04-25 03:47 41.50359 -70.62677 630 ft 132 kts 234°
2026-04-25 03:47 41.49810 -70.63636 616 ft 124 kts 232°
2026-04-25 03:47 41.49293 -70.64518 632 ft 122 kts 233°
2026-04-25 03:48 41.48763 -70.65433 628 ft 124 kts 232°
2026-04-25 03:48 41.48244 -70.66314 643 ft 120 kts 233°
2026-04-25 03:48 41.47739 -70.67182 628 ft 118 kts 232°
2026-04-25 03:48 41.47225 -70.68059 652 ft 121 kts 232°
2026-04-25 03:49 41.46709 -70.68939 612 ft 120 kts 232°
2026-04-25 03:49 41.46201 -70.69808 635 ft 119 kts 232°
2026-04-25 03:49 41.45683 -70.70696 642 ft 121 kts 232°
2026-04-25 03:49 41.45171 -70.71573 646 ft 121 kts 233°
2026-04-25 03:50 41.45010 -70.72249 638 ft 115 kts 269°
2026-04-25 03:50 41.45138 -70.73244 497 ft 102 kts 287°
2026-04-25 03:50 41.45327 -70.74131 397 ft 100 kts 289°
2026-04-25 03:50 41.45554 -70.75010 250 ft 99 kts 293°
2026-04-25 03:51 41.45824 -70.75823 124 ft 87 kts 301°
2026-04-25 03:51 41.46118 -70.76280 97 ft 41 kts 349°
2026-04-25 03:51 41.46185 -70.76247 120 ft 12 kts 98°
2026-04-25 03:51 41.46192 -70.76131 121 ft 13 kts 60°
2026-04-25 03:52 41.46238 -70.76015 142 ft 10 kts 159°
2026-04-25 03:52 41.46169 -70.76072 135 ft 22 kts 228°
2026-04-25 03:52 41.46115 -70.76310 168 ft 35 kts 260°
2026-04-25 03:52 41.46051 -70.76672 255 ft 42 kts 205°
2026-04-25 03:53 41.45823 -70.76951 288 ft 53 kts 227°
2026-04-25 03:53 41.45472 -70.77330 217 ft 76 kts 214°
2026-04-25 03:53 41.45005 -70.77757 177 ft 86 kts 217°
2026-04-25 03:53 41.44527 -70.78273 54 ft 91 kts 221°
2026-04-25 03:54 41.44038 -70.78834 75 ft 94 kts 221°
2026-04-25 03:54 41.43541 -70.79404 79 ft 94 kts 222°
2026-04-25 03:54 41.42980 -70.79899 71 ft 98 kts 204°
2026-04-25 03:54 41.42370 -70.80280 77 ft 92 kts 201°
2026-04-25 03:55 41.41846 -70.80546 112 ft 62 kts 201°
2026-04-25 03:55 41.41602 -70.80761 119 ft 19 kts 337°
2026-04-25 03:55 41.41693 -70.80764 94 ft 16 kts 73°
2026-04-25 03:55 41.41666 -70.80676 91 ft 16 kts 251°
2026-04-25 03:56 41.41654 -70.80806 100 ft 9 kts 37°
2026-04-25 03:56 41.41678 -70.80769 103 ft 3 kts 358°
2026-04-25 03:56 41.41685 -70.80756 93 ft 2 kts
2026-04-25 03:56 41.41683 -70.80751 90 ft 2 kts 11°
2026-04-25 03:57 41.41687 -70.80749 110 ft 0 kts 14°
2026-04-25 03:57 41.41682 -70.80744 102 ft 2 kts
2026-04-25 03:57 41.41681 -70.80739 105 ft 0 kts
2026-04-25 03:57 41.41681 -70.80732 106 ft 1 kts
2026-04-25 03:58 41.41677 -70.80745 106 ft 4 kts
2026-04-25 03:58 41.41667 -70.80778 107 ft 3 kts
2026-04-25 03:58 41.41662 -70.80798 107 ft 2 kts
2026-04-25 03:59 41.41662 -70.80804 107 ft 1 kts
2026-04-25 03:59 41.41672 -70.80777 107 ft 3 kts
2026-04-25 03:59 41.41674 -70.80748 107 ft 4 kts
2026-04-25 03:59 41.41678 -70.80735 108 ft 0 kts
2026-04-25 04:00 41.41677 -70.80734 105 ft 0 kts
2026-04-25 04:00 41.41679 -70.80733 105 ft 0 kts
2026-04-25 04:00 41.41669 -70.80752 106 ft 4 kts
2026-04-25 04:00 41.41661 -70.80773 107 ft 1 kts
2026-04-25 04:01 41.41667 -70.80757 107 ft 4 kts
2026-04-25 04:01 41.41678 -70.80734 105 ft 1 kts
2026-04-25 04:01 41.41679 -70.80732 105 ft 0 kts
2026-04-25 04:01 41.41667 -70.80742 106 ft 5 kts 357°
2026-04-25 04:02 41.41657 -70.80773 103 ft 2 kts 359°
2026-04-25 04:02 41.41664 -70.80771 107 ft 5 kts 359°
2026-04-25 04:02 41.41676 -70.80736 106 ft 2 kts 359°
2026-04-25 04:02 41.41678 -70.80732 104 ft 2 kts 359°
2026-04-25 04:03 41.41663 -70.80748 106 ft 3 kts 359°
2026-04-25 04:03 41.41656 -70.80761 105 ft 0 kts 359°
2026-04-25 04:03 41.41669 -70.80748 106 ft 3 kts 356°
2026-04-25 04:03 41.41678 -70.80731 105 ft 1 kts 357°
2026-04-25 04:04 41.41679 -70.80730 105 ft 1 kts 357°
2026-04-25 04:04 41.41680 -70.80730 105 ft 0 kts 357°
2026-04-25 04:04 41.41669 -70.80741 106 ft 5 kts 357°
2026-04-25 04:04 41.41656 -70.80772 104 ft 2 kts 357°
2026-04-25 04:05 41.41659 -70.80770 107 ft 3 kts 357°
2026-04-25 04:05 41.41673 -70.80752 106 ft 3 kts 357°
2026-04-25 04:05 41.41679 -70.80735 105 ft 2 kts 357°
2026-04-25 04:05 41.41679 -70.80730 105 ft 0 kts 357°
2026-04-25 04:06 41.41674 -70.80732 106 ft 4 kts 357°
2026-04-25 04:06 41.41658 -70.80759 103 ft 4 kts 357°
2026-04-25 04:06 41.41648 -70.80782 101 ft 1 kts 357°
2026-04-25 04:06 41.41648 -70.80791 107 ft 1 kts 357°
2026-04-25 04:07 41.41648 -70.80801 107 ft 1 kts 357°
2026-04-25 04:07 41.41647 -70.80809 108 ft 1 kts 357°
2026-04-25 04:07 41.41647 -70.80819 108 ft 1 kts 357°
2026-04-25 04:07 41.41711 -70.80860 122 ft 37 kts 325°
2026-04-25 04:08 41.42059 -70.81200 366 ft 82 kts 319°
2026-04-25 04:08 41.42289 -70.81887 410 ft 81 kts 261°
2026-04-25 04:08 41.42245 -70.82665 262 ft 86 kts 263°
2026-04-25 04:08 41.42449 -70.83439 102 ft 97 kts 307°
2026-04-25 04:09 41.42830 -70.84165 74 ft 91 kts 301°
2026-04-25 04:09 41.43160 -70.84744 100 ft 52 kts 299°
2026-04-25 04:09 41.43259 -70.84883 9 ft 2 kts 310°
2026-04-25 04:09 41.43245 -70.84861 9 ft 1 kts 313°
2026-04-25 04:10 41.43260 -70.84884 10 ft 0 kts 311°
2026-04-25 04:10 41.43243 -70.84858 12 ft 1 kts 313°
2026-04-25 04:10 41.43263 -70.84879 9 ft 3 kts 328°
2026-04-25 04:10 41.43246 -70.84866 8 ft 5 kts 330°
2026-04-25 04:11 41.43252 -70.84869 9 ft 1 kts 292°
2026-04-25 04:11 41.43252 -70.84890 10 ft 3 kts 284°
2026-04-25 04:22 41.43252 -70.84888 10 ft 4 kts 284°
2026-04-25 04:22 41.43246 -70.84877 42 ft 2 kts 299°
2026-04-25 04:22 41.43232 -70.84876 137 ft 4 kts 305°
2026-04-25 04:22 41.43219 -70.84880 154 ft 0 kts 309°
2026-04-25 04:23 41.43218 -70.84880 189 ft 0 kts 19°
2026-04-25 04:23 41.43219 -70.84880 168 ft 1 kts 18°
2026-04-25 04:23 41.43219 -70.84881 168 ft 0 kts 18°
2026-04-25 04:23 41.43220 -70.84881 159 ft 0 kts 18°
2026-04-25 04:24 41.43294 -70.84780 225 ft 48 kts 48°
2026-04-25 04:24 41.43479 -70.84082 617 ft 110 kts 73°
2026-04-25 04:24 41.43740 -70.82998 904 ft 117 kts 64°
2026-04-25 04:24 41.44082 -70.82033 792 ft 123 kts 65°
2026-04-25 04:25 41.44493 -70.80999 723 ft 127 kts 60°
2026-04-25 04:25 41.44921 -70.80025 925 ft 118 kts 62°
2026-04-25 04:25 41.45334 -70.79090 905 ft 119 kts 62°
2026-04-25 04:25 41.45741 -70.78173 976 ft 116 kts 58°
2026-04-25 04:26 41.46152 -70.77234 917 ft 120 kts 60°
2026-04-25 04:26 41.46567 -70.76237 935 ft 124 kts 60°
2026-04-25 04:26 41.46995 -70.75256 922 ft 122 kts 58°
2026-04-25 04:26 41.47448 -70.74235 910 ft 130 kts 59°
2026-04-25 04:27 41.47909 -70.73260 911 ft 120 kts 59°
2026-04-25 04:27 41.48295 -70.72257 913 ft 126 kts 63°
2026-04-25 04:27 41.48706 -70.71266 877 ft 111 kts 57°
2026-04-25 04:27 41.49131 -70.70427 928 ft 104 kts 53°
2026-04-25 04:28 41.49525 -70.69688 928 ft 96 kts 56°
2026-04-25 04:28 41.49917 -70.68963 927 ft 95 kts 50°
2026-04-25 04:28 41.50308 -70.68255 949 ft 97 kts 56°
2026-04-25 04:28 41.50735 -70.67499 945 ft 110 kts 54°
2026-04-25 04:29 41.51271 -70.66644 912 ft 122 kts 49°
2026-04-25 04:29 41.51797 -70.65864 920 ft 114 kts 47°
2026-04-25 04:29 41.52358 -70.65063 907 ft 122 kts 46°
2026-04-25 04:29 41.52991 -70.64235 939 ft 134 kts 43°
2026-04-25 04:30 41.53731 -70.63426 930 ft 135 kts 38°
2026-04-25 04:30 41.54482 -70.62676 875 ft 135 kts 37°
2026-04-25 04:30 41.55223 -70.61959 948 ft 130 kts 39°
2026-04-25 04:30 41.55955 -70.61182 916 ft 140 kts 40°
2026-04-25 04:31 41.56753 -70.60406 945 ft 143 kts 38°
2026-04-25 04:31 41.57559 -70.59587 931 ft 148 kts 42°
2026-04-25 04:31 41.58390 -70.58722 948 ft 151 kts 34°
2026-04-25 04:31 41.59321 -70.58013 902 ft 156 kts 31°
2026-04-25 04:32 41.60264 -70.57304 1003 ft 153 kts 30°
2026-04-25 04:32 41.61186 -70.56628 941 ft 150 kts 30°
2026-04-25 04:32 41.62067 -70.55993 984 ft 136 kts 30°
2026-04-25 04:32 41.62904 -70.55409 940 ft 132 kts 29°
2026-04-25 04:33 41.63690 -70.54875 838 ft 120 kts 27°
2026-04-25 04:33 41.64390 -70.54437 839 ft 106 kts 28°
2026-04-25 04:33 41.65050 -70.53992 663 ft 107 kts 28°
2026-04-25 04:33 41.65668 -70.53570 525 ft 89 kts 30°
2026-04-25 04:34 41.66134 -70.53214 371 ft 64 kts 44°
2026-04-25 04:34 41.66350 -70.52908 201 ft 28 kts 70°
2026-04-25 04:34 41.66379 -70.52778 156 ft 10 kts 72°
2026-04-25 04:34 41.66401 -70.52641 148 ft 22 kts 80°
2026-04-25 04:35 41.66426 -70.52372 145 ft 32 kts 84°
2026-04-25 04:35 41.66448 -70.52193 143 ft 10 kts 80°
2026-04-25 04:35 41.66461 -70.52112 142 ft 9 kts 46°
2026-04-25 04:35 41.66516 -70.52083 141 ft 7 kts 26°
2026-04-25 04:36 41.66530 -70.52079 141 ft 0 kts 356°